NOAA 16 DEB

Satellite information

Favourite Embed

Satellite Type and Status

DEBRISIN ORBIT

Key statistics

Satellite NOAA 16 DEB at a glance.

Uptime

9214

Days in orbit

Revolutions

≈ 14.2

Per day

Orbit

SSO

Sun Synchronous Orbit

Inclination

98.7

Latest

Satellite identification and parameters

Extended collection of information and parameters for NOAA 16 DEB.

Object identification

Identified? True

Debris? True

Object name: NOAA 16 DEB

International designator: 2000-055HE

Object number (NORAD): 41302

Object ID (CCSDS): 41302

Country: UNITED STATES OF AMERICA (US)

Current information (Y/N): Y

RCS size: SMALL

Orbital parameters

Period: 101.12 minutes

Inclination: 98.7233 deg

SMA: 7189.813 km

Apoapsis: 825.306 km

Periapsis: 798.049 km

RAAN: 43.7479 deg

Eccentricy: 0.00189551

Argument of periapsis: 34.4663 deg

Mean anomaly: 325.7741 deg

Mean motion: 14.24053779 rev/day

Mean motion (dot): 0.00007729 rev/day2

B* drag term: 0.003372728 1/REarth

Two-line elements (TLE)

Creation date: Dec. 11, 2025, 7:14 p.m.

Reference frame: TEME

Reference center: EARTH

Epoch: Dec. 11, 2025, 10:08 a.m. UTC

TLE line 0: 0 NOAA 16 DEB

TLE line 1: 1 41302U 00055HE 25345.42264112 .00007729 00000-0 33727-2 0 9990

TLE line 2: 2 41302 98.7233 43.7479 0018955 34.4663 325.7741 14.24053779512270

Live tracking on map

Real-time ground track for satellite NOAA 16 DEB.

In-orbit conjunctions

A list of the most updated potential collisions computed for object NOAA 16 DEB.

Target Orbit TCA Probability of collision Miss distance Type
COSMOS 1697 LEO 2025-01-30 02:13:30 0.0001779575 67.0 (m) PAYLOAD
COSMOS 1275 DEB LEO 2024-11-11 05:35:11 0.0001964444 314.0 (m) DEBRIS

Associated space launch

The NOAA K, L and M POES satellites begin the fifth generation of improved environmental monitoring in support of NOAA missions. The instrument payload has significant improvements and additions/deletions. The instrument changes have effected the spacecraft subsystems and data formats.

NOAA 16 DEB was lifted into orbit during the mission ‘Titan II SLV | NOAA 16’, on board a Titan II SLV space rocket.

The launch took place on Sept. 21, 2000, 10:22 a.m. from Space Launch Complex 4W.

For more information about the launch, click the button.

Launch to space Titan II SLV | NOAA 16
Titan II SLV | NOAA 16

Agency: N/A

Status: Launch Successful

Launch date: Sept. 21, 2000, 10:22 a.m. UTC

Rocket: Titan II SLV

Launch pad: Space Launch Complex 4W

Location: Vandenberg SFB, CA, USA

...

Latest news about this satellite

There are no fresh news available about this satellite. Check back as we update our databases every day.


Newsletter sign-up

Weekly statistics, charts and insights to help you stay on top of the space industry.